Cherokee Observed Data For Previous 48 Hours

Caption
Day and Hour Reservoir Elevation (behind dam)* Tailwater Elevation (below dam)* Average Hourly Discharge*
1/16/2018 2 AM EST 1,043.35 921.07 0
1/16/2018 3 AM EST 1,043.35 921.07 0
1/16/2018 4 AM EST 1,043.36 921.07 0
1/16/2018 5 AM EST 1,043.35 922.10 162
1/16/2018 6 AM EST 1,043.34 924.01 4,000
1/16/2018 7 AM EST 1,043.35 924.03 3,960
1/16/2018 8 AM EST 1,043.35 924.04 3,951
1/16/2018 9 AM EST 1,043.33 924.04 3,977
1/16/2018 10 AM EST 1,043.32 924.05 3,969
1/16/2018 11 AM EST 1,043.32 924.05 3,982
1/16/2018 12 PM EST 1,043.33 924.02 3,978
1/16/2018 1 PM EST 1,043.34 921.14 71
1/16/2018 2 PM EST 1,043.35 921.07 0
1/16/2018 3 PM EST 1,043.35 921.08 0
1/16/2018 4 PM EST 1,043.38 921.08 0
1/16/2018 5 PM EST 1,043.39 922.10 161
1/16/2018 6 PM EST 1,043.36 925.17 4,262
1/16/2018 7 PM EST 1,043.32 928.25 13,228
1/16/2018 8 PM EST 1,043.30 928.37 13,334
1/16/2018 9 PM EST 1,043.28 928.33 13,288
1/16/2018 10 PM EST 1,043.22 928.35 13,281
1/16/2018 11 PM EST 1,043.17 926.20 8,308
1/17/2018 12 AM EST 1,043.15 926.19 8,152
1/17/2018 1 AM EST 1,043.17 924.05 4,154
1/17/2018 2 AM EST 1,043.19 921.15 70
1/17/2018 3 AM EST 1,043.19 921.08 0
1/17/2018 4 AM EST 1,043.20 921.08 0
1/17/2018 5 AM EST 1,043.21 921.08 0
1/17/2018 6 AM EST 1,043.21 922.09 157
1/17/2018 7 AM EST 1,043.19 924.23 4,033
1/17/2018 8 AM EST 1,043.15 926.61 8,284
1/17/2018 9 AM EST 1,043.13 928.27 13,140
1/17/2018 10 AM EST 1,043.10 928.33 13,270
1/17/2018 11 AM EST 1,043.11 924.27 7,614
1/17/2018 12 PM EST 1,043.07 924.05 3,973
1/17/2018 1 PM EST 1,043.09 921.14 72
1/17/2018 2 PM EST 1,043.11 921.08 0
1/17/2018 3 PM EST 1,043.15 921.08 0
1/17/2018 4 PM EST 1,043.17 921.08 0
1/17/2018 5 PM EST 1,043.18 922.08 155
1/17/2018 6 PM EST 1,043.17 924.01 4,004
1/17/2018 7 PM EST 1,043.17 925.69 4,559
1/17/2018 8 PM EST 1,043.15 926.15 8,205
1/17/2018 9 PM EST 1,043.15 926.15 8,208
1/17/2018 10 PM EST 1,043.15 924.06 4,202
1/17/2018 11 PM EST 1,043.17 921.14 67
1/18/2018 12 AM EST 1,043.17 921.08 0
1/18/2018 1 AM EST 1,043.18 921.08 0
1/18/2018 2 AM EST 1,043.20 921.09 7
1/18/2018 3 AM EST 1,043.21 922.07 147
1/18/2018 4 AM EST 1,043.19 924.31 4,058
1/18/2018 5 AM EST 1,043.16 926.16 8,250
1/18/2018 6 AM EST 1,043.14 926.13 8,186

Elevations are in feet above sea level. Discharges are in cubic feet per second and are reported at the end of the hour.